Location: St. Louis
(38.6270°N, 90.1994°W)
Time: 13:03:38
(UTC-06:00)

Transit 4A - Pass Details

Date: 04 December 2021
Orbit: 864 x 980 km, 66.8° (Epoch: 16 January)

Event Time Altitude Azimuth Distance (km) Brightness Sun altitude
Rises 17:27:43 0° 163° (SSE) 3,436 10.9 -9.4°
Reaches altitude 10° 17:30:57 10° 145° (SE) 2,514 10.0 -10.0°
Maximum altitude 17:34:44 18° 104° (ESE) 2,020 9.2 -10.7°
Enters shadow 17:37:11 14° 75° (ENE) 2,262 9.3 -11.1°
Drops below altitude 10° 17:38:34 10° 63° (ENE) 2,564 - -11.4°
Sets 17:41:53 0° 45° (NE) 3,531 - -12.0°
